Tracking 17140 objects as of 1-July-2015
HD Live streaming from Space Station

COSMOS 2251 DEB

Track COSMOS 2251 DEB now!
10-day predictions
COSMOS 2251 DEB is classified as:


NORAD ID: 35970
Int'l Code: 1993-036AVL
Perigee: 684.9 km
Apogee: 745.4 km
Inclination: 74.0 °
Period: 98.9 minutes
Semi major axis: 7086 km
RCS: 0.0106 m2 (small)
Launch date: June 16, 1993
Source: Commonwealth of Independent States (former USSR) (CIS)

Note: This is SATELLITE DEBRIS
Your satellite tracking list
Your tracking list is empty





NASA's NSSDC Master Catalog

Two Line Element Set (TLE):
1 35970U 93036AVL 15180.10650775  .00001506  00000-0  34891-3 0  9991
2 35970 074.0443 345.0381 0042691 341.1257 018.8321 14.55430655308829

Source of the keplerian elements: AFSPC

N2YO: 279